La Paz, Mexico

8:22 PM MDT on April 28, 2017 (GMT -0600)
Gen Manuel Marquez De Leon

Weather History for MMLP - November, 2012

Change the Weather History Date:

Monday, November 12, 2012

  Actual Average Record
Temperature  
Mean Temperature 74 °F -  
Max Temperature 81 °F 80 °F 91 °F (2007)
Min Temperature 66 °F 57 °F 55 °F (2000)
Cooling Degree Days 8    
Growing Degree Days 24 (Base 50)    
Moisture  
Dew Point 56 °F    
Average Humidity 54    
Maximum Humidity 77    
Minimum Humidity 36    
Precipitation  
Precipitation 0.00 in - - ()
Sea Level Pressure  
Sea Level Pressure 30.04 in    
Wind  
Wind Speed 6 mph ()    
Max Wind Speed 18 mph    
Max Gust Speed -    
Visibility 10.0 miles    
Events      
Averages and records for this station are not official NWS values.
T = Trace of Precipitation, MM = Missing Value Source: Averaged Metar Reports

Daily Weather History Graph

Daily Weather History Graph

Search for Another Location

Airport or City:

Trip Planner

Search our weather history database for the weather conditions in past years. The results will help you decide how hot, cold, wet, or windy it might be!

Date:

Astronomy

Nov. 12, 2012 Rise Set
Actual Time 6:34 AM MST 5:36 PM MST
Civil Twilight 6:11 AM MST 5:59 PM MST
Nautical Twilight 5:43 AM MST 6:27 PM MST
Astronomical Twilight 5:16 AM MST 6:54 PM MST
Moon 5:09 AM MST (11/12) 4:41 PM MST (11/12)
Length of Visible Light 11h 48m
Length of Day
11h 01m
Waning Crescent, 2% of the Moon is Illuminated
Nov 12
Waning Crescent
Nov 13
New
Nov 20
First Quarter
Nov 28
Full
Dec 6
Last Quarter

Hourly Weather History & Observations

Time (MST) Temp. Dew Point Humidity Pressure Visibility Wind Dir Wind Speed Gust Speed Precip Events Conditions
1:50 AM 70 °F 56 °F 51% 30.02 in 2 mi North 4.5 mph - -  
4:50 AM 68 °F 57 °F 59% 30.06 in 2 mi North 4.5 mph - -  
6:10 AM 57.2 °F 50.0 °F 77% 30.02 in 10.0 mi Calm Calm - N/A   Clear
6:40 AM 57.2 °F 50.0 °F 77% 30.03 in 10.0 mi Calm Calm - N/A   Partly Cloudy
7:40 AM 73 °F 56 °F 46% 30.09 in 16 mi North 2.2 mph - -   Mostly Cloudy
7:40 AM 71.6 °F 55.4 °F 57% 30.10 in 10.0 mi North 9.2 mph - N/A   Scattered Clouds
8:44 AM 75.2 °F 53.6 °F 47% 30.08 in 10.0 mi NNE 3.5 mph - N/A   Scattered Clouds
9:40 AM 77.0 °F 53.6 °F 44% 30.07 in 10.0 mi NNE 13.8 mph - N/A   Scattered Clouds
10:43 AM 77.0 °F 53.6 °F 44% 30.11 in 10.0 mi North 17.3 mph - N/A   Mostly Cloudy
10:50 AM 80 °F 58 °F 36% 30.06 in 19 mi North 8.9 mph - -   Clear
11:42 AM 77.0 °F 55.4 °F 47% 30.03 in 10.0 mi North 16.1 mph - N/A   Mostly Cloudy
12:40 PM 78.8 °F 53.6 °F 42% 30.01 in 10.0 mi North 17.3 mph - N/A   Mostly Cloudy
1:50 PM 79 °F 57 °F 37% 29.97 in 19 mi North 11.2 mph - -   Mostly Cloudy
1:51 PM 77.0 °F 53.6 °F 44% 30.02 in 10.0 mi North 16.1 mph - N/A   Overcast
2:49 PM 75.2 °F 55.4 °F 50% 29.95 in 10.0 mi NNE 18.4 mph - N/A   Overcast
3:41 PM 75.2 °F 55.4 °F 50% 29.93 in 10.0 mi NNE 17.3 mph - N/A   Overcast
4:40 PM 75.2 °F 55.4 °F 50% 30.06 in 10.0 mi North 11.5 mph - N/A   Overcast
4:50 PM 76 °F 59 °F 45% 29.94 in 19 mi North 13.4 mph - -   Mostly Cloudy
6:40 PM 73.4 °F 57.2 °F 57% 30.01 in 10.0 mi North 11.5 mph - N/A   Mostly Cloudy
7:50 PM 72 °F 60 °F 56% 30.01 in 2 mi North 4.5 mph - -  
7:52 PM 69.8 °F 55.4 °F 60% 30.13 in 10.0 mi Calm Calm - N/A   Scattered Clouds
8:52 PM 68.0 °F 55.4 °F 64% 30.04 in 10.0 mi Calm Calm - N/A   Scattered Clouds
9:46 PM 68.0 °F 57.2 °F 68% 30.04 in 10.0 mi Calm Calm - N/A   Scattered Clouds
10:43 PM 66.2 °F 57.2 °F 73% 30.14 in 10.0 mi Calm Calm - N/A   Scattered Clouds
10:50 PM 72 °F 60 °F 57% 30.03 in 2 mi Calm Calm - -